Notices

What's New in latest Release from April 7th, 2021:

- Updated Glossary, including Speed of Maximum Gust, and Total Hourly Precipitation

- Updated national and regional climate services offices contacts and prices information

- Addition of station inventory lists for 1981-2010, 1971-2000, and 1961-1990 Normals.

If you haven't already, please take our survey and provide feedback about our website: https://eccc.sondage-survey.ca/f/LanguageSelection.aspx?s=442ca660-fcf1-47c0-95a9-59707d6fd709

Hourly Data Report for December 12, 2020

CARBERRY CS
MANITOBA
Current Station Operator: ECCC - MSC

49°54'20.900" N
99°21'26.800" W
383.50 m
5010547
71170
WZE

Download Data

Hourly Data (December 2020)
Hourly Data Report for December 12, 2020
TIME
LST
Temp Definition
°C
Dew Point Definition
°C
Rel Hum Definition
%
Precip. Amount Definition
mm

Wind Dir Definition
10's deg

Wind Spd Definition
km/h
Visibility Definition
km
Stn Press Definition
kPa
Hmdx Definition


Wind Chill Definition


Weather Definition


00:00 -4.1 -4.2 100 0.0 1 9   97.75   -8 LegendNANA
01:00 -4.2 -4.3 100 0.0 1 8   97.74   -8 LegendNANA
02:00 -4.4 -4.5 100 0.0 36 8   97.76   -8 LegendNANA
03:00 -4.8 -5.2 97 0.0 36 11   97.78   -9 LegendNANA
04:00 -5.8 -5.8 100 0.0 36 15   97.78   -12 LegendNANA
05:00 -6.1 -6.2 100 0.0 2 12   97.78   -11 LegendNANA
06:00 -6.4 -6.5 100 0.0 1 11   97.79   -11 LegendNANA
07:00 -6.6 -6.7 100 0.0 4 11   97.84   -12 LegendNANA
08:00 -6.8 -6.9 100 0.0 2 9   97.81   -11 LegendNANA
09:00 -6.9 -7.0 99 0.0 5 9   97.79   -11 LegendNANA
10:00 -6.9 -7.1 98 0.0 6 8   97.77   -11 LegendNANA
11:00 -6.7 -6.8 99 0.0 6 6   97.76   -10 LegendNANA
12:00 -6.5 -6.6 99 0.0 3 3   97.70   -8 LegendNANA
13:00 -6.2 -6.3 99 0.0 7 1   97.62   -7 LegendNANA
14:00 -6.0 -6.1 99 0.0 16 2   97.57   -7 LegendNANA
15:00 -5.8 -6.6 94 0.0 18 7   97.50   -9 LegendNANA
16:00 -6.0 -7.4 89 0.0 22 10   97.49   -10 LegendNANA
17:00 -5.7 -7.2 89 0.0 24 9   97.54   -10 LegendNANA
18:00 -5.5 -7.1 88 0.0 23 9   97.51   -10 LegendNANA
19:00 -5.4 -6.8 90 0.0 23 8   97.49   -9 LegendNANA
20:00 -5.4 -7.2 87 0.0 23 13   97.42   -11 LegendNANA
21:00 -5.6 -7.3 88 0.0 23 12   97.33   -11 LegendNANA
22:00 -5.6 -6.8 91 0.0 23 13   97.27   -11 LegendNANA
23:00 -5.6 -7.4 87 0.0 20 17   97.22   -12 LegendNANA

Notes on Data Quality.

Legend

  • E = Estimated
  • M = Missing
  • NA = Not Available*
  • [empty] = Indicates an unobserved value
Date modified: